When you browse on this site, cookies collect data to enhance your experience and personalize the content and advertising you see.
Visit our Privacy Policy to learn more. By continuing to use the site, you agree to this use of cookies and data.

Previsão horária em Abadin

Hoje, 22 Setembro, Terça-feira

Tempo Temperatura Precipitação Vento Pressão Humidade
00:00 +12°C° 0 mm 1 m/s 707 mmHg 98%
01:00 +11°C° 0 mm 1 m/s 707 mmHg 98%
02:00 +11°C° 0 mm 1 m/s 706 mmHg 98%
03:00 +11°C° 0 mm 1 m/s 706 mmHg 98%
04:00 +11°C° 0 mm 1 m/s 706 mmHg 98%
05:00 +11°C° 0 mm 1 m/s 706 mmHg 98%
06:00 +12°C° 0 mm 1 m/s 706 mmHg 92%
07:00 +14°C° 0 mm 1 m/s 706 mmHg 87%
08:00 +15°C° 0 mm 1 m/s 707 mmHg 82%
09:00 +18°C° 0 mm 1 m/s 707 mmHg 72%
10:00 +20°C° 0 mm 1 m/s 707 mmHg 62%
11:00 +21°C° 0 mm 2 m/s 707 mmHg 52%
12:00 +21°C° 0 mm 2 m/s 707 mmHg 51%
13:00 +21°C° 0 mm 2 m/s 706 mmHg 50%
14:00 +23°C° 0 mm 2 m/s 706 mmHg 49%
15:00 +21°C° 0.2 mm 1 m/s 705 mmHg 62%
16:00 +18°C° 0.2 mm 1 m/s 704 mmHg 75%
17:00 +15°C° 0.2 mm 1 m/s 704 mmHg 89%
18:00 +15°C° 0.2 mm 1 m/s 704 mmHg 91%
19:00 +15°C° 0.2 mm 1 m/s 704 mmHg 93%
20:00 +14°C° 0.2 mm 1 m/s 704 mmHg 95%
21:00 +14°C° 0.5 mm 1 m/s 704 mmHg 96%
22:00 +14°C° 0.5 mm 1 m/s 704 mmHg 96%
23:00 +14°C° 0.5 mm 1 m/s 703 mmHg 97%

Amanhã, 23 Setembro, Quarta-feira

Tempo Temperatura Precipitação Vento Pressão Humidade
00:00 +14°C° 0.1 mm 1 m/s 703 mmHg 97%
01:00 +14°C° 0.1 mm 2 m/s 702 mmHg 96%
02:00 +14°C° 0.1 mm 2 m/s 702 mmHg 96%
03:00 +14°C° 0 mm 2 m/s 702 mmHg 96%
04:00 +14°C° 0 mm 2 m/s 702 mmHg 96%
05:00 +14°C° 0 mm 2 m/s 702 mmHg 96%
06:00 +13°C° 0.2 mm 3 m/s 702 mmHg 93%
07:00 +14°C° 0.2 mm 3 m/s 702 mmHg 90%
08:00 +16°C° 0.2 mm 3 m/s 703 mmHg 88%
09:00 +16°C° 0.6 mm 3 m/s 703 mmHg 88%
10:00 +17°C° 0.6 mm 3 m/s 703 mmHg 88%
11:00 +17°C° 0.6 mm 3 m/s 703 mmHg 87%
12:00 +17°C° 0.5 mm 3 m/s 703 mmHg 86%
13:00 +17°C° 0.5 mm 3 m/s 703 mmHg 85%
14:00 +17°C° 0.5 mm 3 m/s 703 mmHg 84%
15:00 +16°C° 0.1 mm 3 m/s 703 mmHg 85%
16:00 +16°C° 0.1 mm 2 m/s 703 mmHg 87%
17:00 +15°C° 0.1 mm 2 m/s 703 mmHg 89%
18:00 +14°C° 0.3 mm 2 m/s 704 mmHg 92%
19:00 +13°C° 0.3 mm 2 m/s 704 mmHg 94%
20:00 +13°C° 0.3 mm 1 m/s 705 mmHg 97%
21:00 +13°C° 0.2 mm 1 m/s 705 mmHg 97%
22:00 +13°C° 0.2 mm 1 m/s 705 mmHg 97%
23:00 +13°C° 0.2 mm 1 m/s 705 mmHg 97%

Depois de amanhã, 24 Setembro, Quinta-feira

Tempo Temperatura Precipitação Vento Pressão Humidade
00:00 +12°C° 0.1 mm 2 m/s 705 mmHg 97%
01:00 +12°C° 0.1 mm 2 m/s 705 mmHg 96%
02:00 +10°C° 0.1 mm 2 m/s 704 mmHg 96%
03:00 +10°C° 0 mm 2 m/s 704 mmHg 95%
04:00 +9°C° 0 mm 2 m/s 704 mmHg 95%
05:00 +9°C° 0 mm 2 m/s 704 mmHg 95%
06:00 +9°C° 0 mm 3 m/s 704 mmHg 90%
07:00 +10°C° 0 mm 3 m/s 704 mmHg 84%
08:00 +11°C° 0 mm 4 m/s 704 mmHg 79%
09:00 +12°C° 0.2 mm 4 m/s 704 mmHg 77%
10:00 +13°C° 0.2 mm 4 m/s 705 mmHg 75%
11:00 +13°C° 0.2 mm 4 m/s 705 mmHg 73%
12:00 +13°C° 0.4 mm 4 m/s 705 mmHg 76%
13:00 +12°C° 0.4 mm 4 m/s 705 mmHg 79%
14:00 +12°C° 0.4 mm 4 m/s 705 mmHg 82%
15:00 +11°C° 0.4 mm 4 m/s 705 mmHg 85%
16:00 +10°C° 0.4 mm 4 m/s 705 mmHg 88%
17:00 +9°C° 0.4 mm 3 m/s 706 mmHg 91%
18:00 +9°C° 0.3 mm 3 m/s 706 mmHg 91%
19:00 +8°C° 0.3 mm 3 m/s 707 mmHg 92%
20:00 +8°C° 0.3 mm 2 m/s 707 mmHg 93%
21:00 +7°C° 0.1 mm 2 m/s 708 mmHg 94%
22:00 +6°C° 0.1 mm 2 m/s 708 mmHg 95%
23:00 +6°C° 0.1 mm 2 m/s 708 mmHg 96%

25 Setembro, Sexta-feira

Tempo Temperatura Precipitação Vento Pressão Humidade
00:00 +6°C° 0.2 mm 2 m/s 708 mmHg 96%
01:00 +6°C° 0.2 mm 2 m/s 708 mmHg 96%
02:00 +6°C° 0.2 mm 2 m/s 708 mmHg 97%
03:00 +6°C° 0.3 mm 2 m/s 709 mmHg 97%
04:00 +6°C° 0.3 mm 2 m/s 709 mmHg 96%
05:00 +6°C° 0.3 mm 2 m/s 710 mmHg 96%
06:00 +7°C° 0.3 mm 3 m/s 710 mmHg 94%
07:00 +8°C° 0.3 mm 3 m/s 711 mmHg 91%
08:00 +9°C° 0.3 mm 3 m/s 711 mmHg 88%
09:00 +10°C° 0.1 mm 4 m/s 712 mmHg 77%
10:00 +11°C° 0.1 mm 4 m/s 713 mmHg 66%
11:00 +12°C° 0.1 mm 4 m/s 714 mmHg 55%
12:00 +12°C° 0.1 mm 4 m/s 714 mmHg 56%
13:00 +12°C° 0.1 mm 4 m/s 714 mmHg 57%
14:00 +12°C° 0.1 mm 4 m/s 714 mmHg 58%
15:00 +11°C° 0.1 mm 3 m/s 714 mmHg 66%
16:00 +10°C° 0.1 mm 2 m/s 714 mmHg 74%
17:00 +8°C° 0.1 mm 2 m/s 714 mmHg 82%
18:00 +8°C° 0.1 mm 2 m/s 715 mmHg 86%
19:00 +8°C° 0.1 mm 1 m/s 715 mmHg 90%
20:00 +7°C° 0.1 mm 1 m/s 715 mmHg 94%
21:00 +7°C° 0.1 mm 1 m/s 715 mmHg 94%
22:00 +7°C° 0.1 mm 1 m/s 715 mmHg 93%
23:00 +7°C° 0.1 mm 1 m/s 715 mmHg 93%

26 Setembro, Sábado

Tempo Temperatura Precipitação Vento Pressão Humidade
00:00 +7°C° 0 mm 1 m/s 715 mmHg 93%
01:00 +7°C° 0 mm 1 m/s 715 mmHg 94%
02:00 +7°C° 0 mm 1 m/s 714 mmHg 94%
03:00 +7°C° 0 mm 1 m/s 714 mmHg 92%
04:00 +8°C° 0 mm 1 m/s 714 mmHg 91%
05:00 +8°C° 0 mm 1 m/s 714 mmHg 89%
06:00 +9°C° 0 mm 1 m/s 714 mmHg 85%
07:00 +10°C° 0 mm 1 m/s 714 mmHg 81%
08:00 +11°C° 0 mm 1 m/s 714 mmHg 77%
09:00 +12°C° 0 mm 2 m/s 714 mmHg 74%
10:00 +13°C° 0 mm 2 m/s 714 mmHg 70%
11:00 +14°C° 0 mm 2 m/s 714 mmHg 67%
12:00 +13°C° 0 mm 3 m/s 713 mmHg 69%
13:00 +13°C° 0 mm 3 m/s 713 mmHg 72%
14:00 +13°C° 0 mm 3 m/s 712 mmHg 74%
15:00 +13°C° 0.1 mm 3 m/s 712 mmHg 79%
16:00 +13°C° 0.1 mm 2 m/s 712 mmHg 83%
17:00 +13°C° 0.1 mm 2 m/s 712 mmHg 88%
18:00 +13°C° 0.1 mm 2 m/s 712 mmHg 90%
19:00 +12°C° 0.1 mm 2 m/s 712 mmHg 93%
20:00 +12°C° 0.1 mm 2 m/s 712 mmHg 95%
21:00 +12°C° 0.2 mm 2 m/s 711 mmHg 96%
22:00 +13°C° 0.2 mm 2 m/s 711 mmHg 97%
23:00 +13°C° 0.2 mm 2 m/s 711 mmHg 98%

27 Setembro, Domingo

Tempo Temperatura Precipitação Vento Pressão Humidade
00:00 +13°C° 0.3 mm 2 m/s 711 mmHg 98%
01:00 +13°C° 0.3 mm 2 m/s 710 mmHg 98%
02:00 +13°C° 0.3 mm 2 m/s 710 mmHg 99%
03:00 +13°C° 0.3 mm 1 m/s 710 mmHg 99%
04:00 +13°C° 0.3 mm 1 m/s 710 mmHg 99%
05:00 +13°C° 0.3 mm 1 m/s 710 mmHg 99%
06:00 +14°C° 0.1 mm 1 m/s 710 mmHg 97%
07:00 +14°C° 0.1 mm 1 m/s 710 mmHg 96%
08:00 +14°C° 0.1 mm 1 m/s 710 mmHg 94%
09:00 +15°C° 0 mm 1 m/s 710 mmHg 88%
10:00 +16°C° 0 mm 1 m/s 711 mmHg 82%
11:00 +18°C° 0 mm 1 m/s 711 mmHg 76%
12:00 +18°C° 0 mm 1 m/s 710 mmHg 75%
13:00 +17°C° 0 mm 2 m/s 710 mmHg 73%
14:00 +17°C° 0 mm 2 m/s 710 mmHg 72%
15:00 +16°C° 0 mm 1 m/s 710 mmHg 77%
16:00 +15°C° 0 mm 1 m/s 710 mmHg 83%
17:00 +14°C° 0 mm 1 m/s 710 mmHg 89%
18:00 +13°C° 0 mm 0 m/s 710 mmHg 90%
19:00 +13°C° 0 mm 0 m/s 710 mmHg 92%
20:00 +12°C° 0 mm 0 m/s 710 mmHg 94%
21:00 +12°C° 0 mm 0 m/s 710 mmHg 94%
22:00 +12°C° 0 mm 0 m/s 710 mmHg 95%
23:00 +12°C° 0 mm 0 m/s 710 mmHg 95%
Mostrar mais